Simultaneous Nadir Overpasses (SNOs) Predictions

Prediction of SNOs between TERRA and METOP-C Satellite Orbit:

Table of predicted SNOs for the next 14.0 days since TLE Epoch: 4/25/2020
Index Date (TERRA) Time (TERRA) Lat,Lon (TERRA) SZA (TERRA ) Date (METOP-C) Time (METOP-C) Lat,Lon (METOP-C) SZA (METOP-C ) Distance(km) Time Diff (sec)
1 04/27/2020 21:18:24 -81.30, 87.79 109.94 04/27/2020 21:17:27 -81.30, 87.88 109.96 1.49 57
2 04/27/2020 22:07:50 81.31,-104.46 70.07 04/27/2020 22:08:07 81.31,-104.30 70.09 2.73 17
3 04/30/2020 16:52:36 -81.30, 154.16 110.81 04/30/2020 16:51:49 -81.30, 154.33 110.81 2.85 47
4 04/30/2020 17:42:02 81.30, -38.11 69.20 04/30/2020 17:42:30 81.30, -38.30 69.19 3.16 28
5 05/03/2020 12:26:49 -81.29,-139.50 111.64 05/03/2020 12:26:13 -81.30,-139.62 111.67 2.07 36
6 05/03/2020 13:16:15 81.30, 28.21 68.36 05/03/2020 13:16:53 81.30, 28.08 68.37 2.25 38
7 05/06/2020 08:01:01 -81.31, -72.81 112.39 05/06/2020 08:00:35 -81.30, -72.80 112.41 0.46 26
8 05/06/2020 08:50:27 81.31, 94.87 67.61 05/06/2020 08:51:15 81.31, 94.83 67.63 0.76 48




NCC Satellite Simultaneous Nadir Overpasses (SNOs) Prediction Service
